Date String (YYYY-MM-DD hh:mm:ss) UTC,Instrument flags,Ambient pressure (hPa),Sample flow (lpm),Bypass flow (lpm),Sample temperature (°C),Ambient temperature (°C),ASC tube jacket temperature (°C),LED temperature (°C),Box temperature (°C),Sample RH (%),Span deviation,Mass concentration (μg/m³),Mass concentration (μg/m³),Mass concentration (μg/m³)
DateTimeUTC,F1_M11,P_M11,Q1_M11,Q2_M11,T1_M11,T2_M11,T3_M11,T4_M11,T5_M11,U1_M11,ZSPAN_M11,X0_M11,X2_M11,X1_M11
2022-04-25 18:00:00,,0832.8,5.00,0.00,22.8,22.3,00.0,31.6,24.7,11.6,0000.0,0010.14,0004.84,0004.22
2022-04-25 18:01:00,,0832.8,5.00,0.00,22.8,22.3,00.0,31.6,24.7,11.7,0000.0,0011.04,0004.91,0004.24
2022-04-25 18:02:00,,0832.8,5.01,0.00,22.8,22.3,00.0,31.6,24.7,11.6,0000.0,0011.09,0004.93,0004.26
2022-04-25 18:03:00,,0832.7,4.98,0.00,22.9,22.3,00.0,31.6,24.7,11.4,0000.0,0010.99,0004.92,0004.26
2022-04-25 18:04:00,,0832.8,5.00,0.00,22.9,22.3,00.0,31.7,24.8,11.5,0000.0,0010.86,0004.94,0004.28
2022-04-25 18:05:00,,0832.7,5.01,0.00,22.9,22.3,00.0,31.7,24.8,11.8,0000.0,0010.61,0004.92,0004.28
2022-04-25 18:06:00,,0832.7,5.00,0.00,22.9,22.4,00.0,31.7,24.8,11.6,0000.0,0010.46,0004.90,0004.30
2022-04-25 18:07:00,,0832.7,4.99,0.00,22.9,22.4,00.0,31.7,24.8,11.7,0000.0,0009.96,0004.94,0004.33
2022-04-25 18:08:00,,0832.7,4.99,0.00,23.0,22.4,00.0,31.7,24.9,11.5,0000.0,0009.94,0004.96,0004.35
2022-04-25 18:09:00,,0832.7,5.00,0.00,23.0,22.4,00.0,31.8,24.9,11.7,0000.0,0010.00,0004.96,0004.36
2022-04-25 18:10:00,,0832.7,5.00,0.00,23.0,22.5,00.0,31.8,24.9,11.6,0000.0,0009.71,0004.92,0004.37
2022-04-25 18:11:00,,0832.7,5.00,0.00,23.0,22.5,00.0,31.8,24.9,11.8,0000.0,0009.42,0004.92,0004.38
2022-04-25 18:12:00,,0832.7,4.99,0.00,23.1,22.5,00.0,31.8,25.0,11.5,0000.0,0008.80,0004.93,0004.39
2022-04-25 18:13:00,,0832.7,5.01,0.00,23.1,22.5,00.0,31.8,25.0,11.6,0000.0,0010.03,0004.98,0004.39
2022-04-25 18:14:00,,0832.7,5.01,0.00,23.1,22.5,00.0,31.9,25.0,11.5,0000.0,0010.16,0005.01,0004.41
2022-04-25 18:15:00,,0832.7,4.98,0.00,23.2,22.6,00.0,31.9,25.0,11.5,0000.0,0010.25,0005.03,0004.41
2022-04-25 18:16:00,,0832.8,5.01,0.00,23.2,22.6,00.0,31.9,25.0,11.4,0000.0,0011.06,0005.09,0004.43
2022-04-25 18:17:00,,0832.7,5.00,0.00,23.2,22.6,00.0,31.9,25.1,11.4,0000.0,0011.54,0005.15,0004.46
2022-04-25 18:18:00,,0832.7,5.01,0.00,23.2,22.6,00.0,32.0,25.1,11.4,0000.0,0011.85,0005.20,0004.48
2022-04-25 18:19:00,,0832.7,5.00,0.00,23.2,22.6,00.0,32.0,25.1,11.4,0000.0,0012.75,0005.22,0004.50
2022-04-25 18:20:00,,0832.7,4.99,0.00,23.3,22.7,00.0,32.0,25.1,11.4,0000.0,0013.54,0005.25,0004.50
2022-04-25 18:21:00,,0832.7,5.01,0.00,23.3,22.7,00.0,32.0,25.2,11.5,0000.0,0013.74,0005.32,0004.52
2022-04-25 18:22:00,,0832.7,5.00,0.00,23.3,22.7,00.0,32.0,25.2,11.5,0000.0,0013.60,0005.32,0004.52
2022-04-25 18:23:00,,0832.7,5.01,0.00,23.3,22.8,00.0,32.1,25.2,11.5,0000.0,0013.28,0005.29,0004.52
2022-04-25 18:24:00,,0832.7,4.99,0.00,23.4,22.8,00.0,32.1,25.2,11.5,0000.0,0012.18,0005.29,0004.52
2022-04-25 18:25:00,,0832.7,5.00,0.00,23.4,22.8,00.0,32.1,25.2,11.2,0000.0,0012.68,0005.29,0004.52
2022-04-25 18:26:00,,0832.7,4.99,0.00,23.4,22.8,00.0,32.1,25.3,11.1,0000.0,0012.62,0005.28,0004.53
2022-04-25 18:27:00,,0832.7,5.00,0.00,23.5,22.9,00.0,32.2,25.3,11.4,0000.0,0012.38,0005.29,0004.54
2022-04-25 18:28:00,,0832.7,5.00,0.00,23.5,22.9,00.0,32.2,25.4,11.3,0000.0,0012.39,0005.31,0004.55
2022-04-25 18:29:00,,0832.7,5.00,0.00,23.5,22.9,00.0,32.2,25.4,11.0,0000.0,0012.21,0005.30,0004.54
2022-04-25 18:30:00,,0832.7,5.00,0.00,23.5,22.9,00.0,32.2,25.3,11.1,0000.0,0011.10,0005.26,0004.53
2022-04-25 18:31:00,,0832.7,5.00,0.00,23.5,22.9,00.0,32.3,25.3,11.1,0000.0,0010.15,0005.23,0004.53
2022-04-25 18:32:00,,0832.7,5.00,0.00,23.5,22.9,00.0,32.3,25.3,11.0,0000.0,0010.00,0005.20,0004.53
2022-04-25 18:33:00,,0832.6,4.99,0.00,23.5,22.9,00.0,32.3,25.4,11.2,0000.0,0010.00,0005.20,0004.53
2022-04-25 18:34:00,,0832.6,5.00,0.00,23.5,22.9,00.0,32.3,25.4,11.4,0000.0,0010.05,0005.23,0004.53
2022-04-25 18:35:00,,0832.6,5.00,0.00,23.6,22.9,00.0,32.3,25.4,11.3,0000.0,0009.88,0005.19,0004.53
2022-04-25 18:36:00,,0832.6,5.00,0.00,23.6,22.9,00.0,32.3,25.5,11.3,0000.0,0009.39,0005.19,0004.53
2022-04-25 18:37:00,,0832.5,5.00,0.00,23.6,22.9,00.0,32.3,25.4,11.1,0000.0,0009.40,0005.18,0004.53
2022-04-25 18:38:00,,0832.6,5.00,0.00,23.5,22.9,00.0,32.4,25.4,11.1,0000.0,0008.92,0005.14,0004.53
2022-04-25 18:39:00,,0832.5,5.00,0.00,23.5,22.9,00.0,32.4,25.3,11.1,0000.0,0008.85,0005.11,0004.53
2022-04-25 18:40:00,,0832.5,5.00,0.00,23.5,22.9,00.0,32.4,25.3,11.1,0000.0,0009.62,0005.12,0004.55
2022-04-25 18:41:00,,0832.5,5.00,0.00,23.5,22.9,00.0,32.4,25.3,11.1,0000.0,0009.92,0005.16,0004.58
2022-04-25 18:42:00,,0832.5,5.01,0.00,23.5,22.9,00.0,32.4,25.4,11.1,0000.0,0010.11,0005.17,0004.58
2022-04-25 18:43:00,,0832.5,5.00,0.00,23.6,22.9,00.0,32.4,25.4,10.9,0000.0,0010.15,0005.16,0004.58
2022-04-25 18:44:00,,0832.5,5.00,0.00,23.6,22.9,00.0,32.4,25.5,10.8,0000.0,0010.28,0005.16,0004.60
2022-04-25 18:45:00,,0832.5,4.99,0.00,23.6,23.0,00.0,32.4,25.5,10.7,0000.0,0010.52,0005.16,0004.62
2022-04-25 18:46:00,,0832.5,5.01,0.00,23.6,23.0,00.0,32.4,25.5,10.6,0000.0,0010.81,0005.19,0004.64
2022-04-25 18:47:00,,0832.5,4.99,0.00,23.7,23.0,00.0,32.4,25.5,10.6,0000.0,0010.91,0005.21,0004.66
2022-04-25 18:48:00,,0832.5,5.01,0.00,23.7,23.0,00.0,32.5,25.5,10.6,0000.0,0011.15,0005.22,0004.67
2022-04-25 18:49:00,,0832.5,4.99,0.00,23.7,23.1,00.0,32.5,25.5,10.6,0000.0,0012.16,0005.28,0004.68
2022-04-25 18:50:00,,0832.5,5.00,0.00,23.7,23.1,00.0,32.5,25.5,10.6,0000.0,0011.93,0005.30,0004.69
2022-04-25 18:51:00,,0832.5,5.00,0.00,23.7,23.1,00.0,32.5,25.6,10.6,0000.0,0011.03,0005.29,0004.69
2022-04-25 18:52:00,,0832.6,5.00,0.00,23.8,23.1,00.0,32.5,25.6,10.6,0000.0,0010.89,0005.29,0004.69
2022-04-25 18:53:00,,0832.5,5.00,0.00,23.8,23.1,00.0,32.5,25.6,10.7,0000.0,0010.76,0005.32,0004.69
2022-04-25 18:54:00,,0832.5,5.01,0.00,23.8,23.2,00.0,32.6,25.6,10.6,0000.0,0010.76,0005.33,0004.69
2022-04-25 18:55:00,,0832.5,5.01,0.00,23.8,23.2,00.0,32.6,25.7,10.6,0000.0,0010.72,0005.36,0004.69
2022-04-25 18:56:00,,0832.6,4.98,0.00,23.9,23.2,00.0,32.6,25.7,10.6,0000.0,0010.56,0005.38,0004.69
2022-04-25 18:57:00,,0832.6,5.01,0.00,23.9,23.2,00.0,32.6,25.7,10.7,0000.0,0010.49,0005.38,0004.69
2022-04-25 18:58:00,,0832.6,5.00,0.00,23.9,23.3,00.0,32.6,25.7,10.7,0000.0,0010.92,0005.36,0004.67
2022-04-25 18:59:00,,0832.7,5.01,0.00,23.9,23.3,00.0,32.7,25.7,10.6,0000.0,0010.90,0005.35,0004.66
